EW4725 Weather Reports


Display with metric or nautical units.
time (UTC)temp
F
wind
direction
speed
MPH
gust
MPH
rain 1hr
in
rain 24hr
in
rain mn
in
humidity
%
barometer
mb
20260504041336 60 260 3.0 4.0 0.00 0.00 0.00 76 1014.7
20260504040816 60 283 4.0 5.0 0.00 0.00 0.00 76 1014.7
20260504040316 60 283 5.0 7.0 0.00 0.00 0.00 76 1014.7
20260504035816 60 260 5.0 8.0 0.00 0.00 0.00 75 1014.5
20260504035336 60 260 4.0 7.0 0.00 0.00 0.00 75 1014.4
20260504034816 60 283 1.0 2.0 0.00 0.00 0.00 75 1014.4
20260504034316 60 283 2.0 4.0 0.00 0.00 0.00 75 1014.6
20260504033816 60 260 2.0 3.0 0.00 0.00 0.00 74 1014.4
20260504033316 60 283 6.0 9.0 0.00 0.00 0.00 74 1014.4
20260504032856 60 305 6.0 9.0 0.00 0.00 0.00 74 1014.3
20260504032316 60 260 5.0 9.0 0.00 0.00 0.00 74 1014.2
20260504031816 60 283 5.0 8.0 0.00 0.00 0.00 74 1014.2
20260504031336 60 283 5.0 7.0 0.00 0.00 0.00 75 1014.1
20260504030816 60 260 2.0 2.0 0.00 0.00 0.00 75 1014.0
20260504030316 60 283 6.0 9.0 0.00 0.00 0.00 75 1013.9
20260504025816 61 260 5.0 7.0 0.00 0.00 0.00 75 1013.9
20260504025316 60 283 6.0 9.0 0.00 0.00 0.00 75 1014.0
20260504024816 60 283 6.0 10.0 0.00 0.00 0.00 75 1013.8
20260504024316 61 283 7.0 11.0 0.00 0.00 0.00 75 1013.8
20260504023816 61 260 8.0 10.0 0.00 0.00 0.00 75 1013.8
20260504023316 61 260 6.0 10.0 0.00 0.00 0.00 74 1013.8
20260504022816 61 260 8.0 13.0 0.00 0.00 0.00 74 1013.8
20260504022316 61 260 5.0 6.0 0.00 0.00 0.00 74 1013.8
20260504021836 61 260 7.0 10.0 0.00 0.00 0.00 74 1013.7
20260504021316 61 260 7.0 11.0 0.00 0.00 0.00 74 1013.6
20260504020816 61 260 6.0 8.0 0.00 0.00 0.00 74 1013.6
20260504020417 61 283 6.0 8.0 0.00 0.00 0.00 73 1013.3
20260504015816 62 260 6.0 9.0 0.00 0.00 0.00 72 1013.5
20260504015316 62 283 5.0 6.0 0.00 0.00 0.00 71 1013.4
20260504014816 62 260 6.0 9.0 0.00 0.00 0.00 71 1013.3
20260504014316 62 283 5.0 6.0 0.00 0.00 0.00 71 1013.3
20260504013816 62 260 5.0 6.0 0.00 0.00 0.00 71 1013.3
20260504013316 62 283 7.0 11.0 0.00 0.00 0.00 70 1013.2
20260504012836 62 260 5.0 8.0 0.00 0.00 0.00 70 1013.1
20260504012316 63 283 8.0 12.0 0.00 0.00 0.00 70 1013.2
20260504011836 63 260 6.0 8.0 0.00 0.00 0.00 70 1013.3
20260504011316 63 260 4.0 10.0 0.00 0.00 0.00 70 1013.2
20260504010836 63 260 5.0 7.0 0.00 0.00 0.00 70 1013.1
20260504010316 63 260 6.0 10.0 0.00 0.00 0.00 70 1013.1
20260504005816 63 283 5.0 9.0 0.00 0.00 0.00 71 1013.1
20260504005316 63 283 7.0 9.0 0.00 0.00 0.00 71 1013.0
20260504004816 63 283 5.0 8.0 0.00 0.00 0.00 71 1013.0
20260504004316 63 238 7.0 10.0 0.00 0.00 0.00 71 1013.1
20260504003836 63 283 4.0 5.0 0.00 0.00 0.00 72 1013.0
20260504003316 63 260 4.0 7.0 0.00 0.00 0.00 72 1012.9
20260504002816 63 283 5.0 7.0 0.00 0.00 0.00 72 1013.0
20260504002336 64 260 7.0 11.0 0.00 0.00 0.00 71 1013.0
20260504001816 64 283 4.0 6.0 0.00 0.00 0.00 72 1013.0
20260504001316 64 260 4.0 8.0 0.00 0.00 0.00 72 1012.9
20260504000816 64 283 3.0 6.0 0.00 0.00 0.00 72 1012.8
20260504000336 64 283 6.0 11.0 0.00 0.00 0.00 71 1012.8
20260503235816 64 305 7.0 12.0 0.00 0.00 0.00 71 1012.8
20260503235316 64 260 9.0 14.0 0.00 0.00 0.00 71 1012.6
20260503234816 64 305 5.0 6.0 0.00 0.00 0.00 70 1012.7
20260503234316 64 260 5.0 8.0 0.00 0.00 0.00 70 1012.8
20260503233816 64 283 6.0 9.0 0.00 0.00 0.00 69 1012.5
20260503233316 64 260 6.0 8.0 0.00 0.00 0.00 68 1012.6
20260503232816 64 260 6.0 8.0 0.00 0.00 0.00 67 1012.7
20260503232316 65 283 8.0 12.0 0.00 0.00 0.00 66 1012.9
20260503231816 65 305 8.0 12.0 0.00 0.00 0.00 66 1012.8
20260503231316 64 283 4.0 8.0 0.00 0.00 0.00 67 1013.0
20260503230816 64 305 7.0 11.0 0.00 0.00 0.00 65 1012.9
20260503230316 65 283 7.0 11.0 0.00 0.00 0.00 66 1013.1
20260503225836 65 283 4.0 6.0 0.00 0.00 0.00 64 1013.0
20260503225336 65 305 6.0 10.0 0.00 0.00 0.00 64 1013.1
20260503224816 65 283 6.0 8.0 0.00 0.00 0.00 63 1013.2
20260503224315 65 260 5.0 13.0 0.00 0.00 0.00 63 1013.2
20260503223816 65 283 6.0 10.0 0.00 0.00 0.00 62 1013.2
20260503223316 65 283 8.0 11.0 0.00 0.00 0.00 61 1013.3
20260503222816 65 305 5.0 7.0 0.00 0.00 0.00 60 1013.3
20260503222316 65 305 5.0 11.0 0.00 0.00 0.00 61 1013.4
20260503221815 65 283 4.0 9.0 0.00 0.00 0.00 60 1013.4
20260503221336 65 283 4.0 7.0 0.00 0.00 0.00 60 1013.4
20260503220815 65 283 5.0 6.0 0.00 0.00 0.00 60 1013.4
20260503220315 65 260 6.0 9.0 0.00 0.00 0.00 60 1013.5
20260503215816 65 283 8.0 12.0 0.00 0.00 0.00 59 1013.5
20260503215315 66 260 5.0 9.0 0.00 0.00 0.00 59 1013.6
20260503214816 66 283 4.0 5.0 0.00 0.00 0.00 60 1013.6
20260503214316 66 283 6.0 9.0 0.00 0.00 0.00 60 1013.5
20260503213836 66 305 7.0 9.0 0.00 0.00 0.00 60 1013.6
20260503213336 66 283 4.0 6.0 0.00 0.00 0.00 58 1013.6
20260503212816 67 260 6.0 10.0 0.00 0.00 0.00 58 1013.5
20260503212315 67 260 4.0 12.0 0.00 0.00 0.00 59 1013.6
20260503211815 67 260 6.0 7.0 0.00 0.00 0.00 58 1013.6
20260503211315 67 260 5.0 9.0 0.00 0.00 0.00 57 1013.6
20260503210815 67 305 5.0 7.0 0.00 0.00 0.00 57 1013.7
20260503210316 68 238 5.0 8.0 0.00 0.00 0.00 56 1013.7
20260503205815 68 260 6.0 8.0 0.00 0.00 0.00 56 1013.6
20260503205315 68 260 3.0 7.0 0.00 0.00 0.00 57 1013.6
20260503204815 68 238 3.0 5.0 0.00 0.00 0.00 58 1013.6
20260503204315 67 260 3.0 6.0 0.00 0.00 0.00 58 1013.5
20260503203816 68 283 5.0 9.0 0.00 0.00 0.00 57 1013.6
20260503203316 67 260 5.0 7.0 0.00 0.00 0.00 59 1013.6
20260503202815 68 125 2.0 3.0 0.00 0.00 0.00 59 1013.7
20260503202315 68 260 4.0 7.0 0.00 0.00 0.00 59 1013.7
20260503201816 68 170 5.0 7.0 0.00 0.00 0.00 59 1013.7
20260503201315 67 283 5.0 7.0 0.00 0.00 0.00 59 1013.7
20260503200816 68 260 7.0 10.0 0.00 0.00 0.00 59 1013.8
20260503200316 67 260 4.0 6.0 0.00 0.00 0.00 59 1013.8
20260503195815 68 283 5.0 8.0 0.00 0.00 0.00 57 1013.9
20260503195316 69 148 3.0 5.0 0.00 0.00 0.00 56 1013.9
20260503194855 69 170 1.0 3.0 0.00 0.00 0.00 56 1013.9
20260503194315 69 305 1.0 1.0 0.00 0.00 0.00 56 1014.0
20260503193815 68 148 2.0 2.0 0.00 0.00 0.00 56 1014.1
20260503193315 69 148 2.0 3.0 0.00 0.00 0.00 57 1014.0
20260503192815 68 215 2.0 3.0 0.00 0.00 0.00 57 1014.1
20260503192315 68 148 3.0 5.0 0.00 0.00 0.00 56 1014.1
20260503191815 69 148 4.0 6.0 0.00 0.00 0.00 56 1014.2
20260503191315 68 0.0 1.0 0.00 0.00 0.00 58 1014.2
20260503190815 68 148 1.0 10.0 0.00 0.00 0.00 57 1014.3
20260503190316 68 215 5.0 7.0 0.00 0.00 0.00 58 1014.3
20260503185816 68 260 3.0 6.0 0.00 0.00 0.00 59 1014.4
20260503185315 67 0.0 1.0 0.00 0.00 0.00 59 1014.4
20260503184855 67 125 1.0 2.0 0.00 0.00 0.00 60 1014.5
20260503184316 67 283 4.0 6.0 0.00 0.00 0.00 59 1014.5
20260503183815 67 148 2.0 4.0 0.00 0.00 0.00 60 1014.5
20260503183315 67 0.0 0.0 0.00 0.00 0.00 60 1014.6
20260503182815 66 148 2.0 4.0 0.00 0.00 0.00 61 1014.6
20260503182315 66 283 2.0 3.0 0.00 0.00 0.00 61 1014.6
20260503181815 66 125 1.0 2.0 0.00 0.00 0.00 62 1014.6
20260503181315 66 260 4.0 4.0 0.00 0.00 0.00 61 1014.7
20260503180815 66 260 2.0 3.0 0.00 0.00 0.00 62 1014.8
20260503180315 66 103 1.0 2.0 0.00 0.00 0.00 63 1014.7
20260503175815 65 170 2.0 3.0 0.00 0.00 0.00 64 1014.8
20260503175355 65 125 2.0 4.0 0.00 0.00 0.00 64 1014.7
20260503174817 65 260 1.0 3.0 0.00 0.00 0.00 65 1014.7
20260503174315 65 260 2.0 4.0 0.00 0.00 0.00 65 1014.7
20260503173838 65 238 2.0 5.0 0.00 0.00 0.00 66 1014.7
20260503173317 64 0.0 1.0 0.00 0.00 0.00 66 1014.7
20260503172817 65 215 2.0 3.0 0.00 0.00 0.00 67 1014.7
20260503172315 64 170 2.0 3.0 0.00 0.00 0.00 67 1014.5
20260503171817 65 148 2.0 5.0 0.00 0.00 0.00 68 1014.5
20260503171317 64 170 1.0 3.0 0.00 0.00 0.00 69 1014.4
20260503170837 64 193 3.0 5.0 0.00 0.00 0.00 68 1014.4
20260503170317 64 170 1.0 2.0 0.00 0.00 0.00 69 1014.4
20260503150817 61 283 2.0 4.0 0.00 0.00 0.00 80 1013.7
20260503150317 61 238 2.0 4.0 0.00 0.00 0.00 81 1013.6
20260503131317 60 283 1.0 2.0 0.00 0.00 0.00 85 1012.9
20260503130816 60 238 1.0 2.0 0.00 0.00 0.00 84 1012.9
20260503130316 60 260 1.0 3.0 0.00 0.00 0.00 82 1012.9
20260503110816 60 148 1.0 2.0 0.00 0.00 0.00 82 1012.7
20260503110317 60 193 2.0 2.0 0.00 0.00 0.00 81 1012.7
20260503090316 60 170 1.0 2.0 0.00 0.00 0.00 81 1013.2
20260503081316 60 170 1.0 1.0 0.00 0.00 0.00 85 1013.4
20260503080816 60 260 1.0 3.0 0.00 0.00 0.00 85 1013.3
20260503080316 60 238 1.0 2.0 0.00 0.00 0.00 85 1013.3
20260503072816 60 260 1.0 1.0 0.00 0.00 0.00 86 1013.1
20260503072416 60 260 1.0 1.0 0.00 0.00 0.00 86 1013.1
20260503071836 60 0.0 0.0 0.00 0.00 0.00 86 1013.1
20260503071316 59 0.0 0.0 0.00 0.00 0.00 86 1013.0
20260503070816 59 0.0 1.0 0.00 0.00 0.00 87 1013.0
20260503070316 59 0.0 0.0 0.00 0.00 0.00 87 1012.9
20260503060316 59 283 2.0 3.0 0.00 0.00 0.00 88 1012.9
20260503054856 59 260 2.0 3.0 0.00 0.00 0.00 88 1012.8
20260503054316 59 260 2.0 3.0 0.00 0.00 0.00 88 1012.8
20260503053817 59 283 3.0 4.0 0.00 0.00 0.00 89 1012.7
20260503053317 59 305 3.0 5.0 0.00 0.00 0.00 89 1012.8
20260503052817 59 283 2.0 3.0 0.00 0.00 0.00 89 1012.9
20260503052317 59 260 1.0 3.0 0.00 0.00 0.00 89 1012.8
20260503051816 59 283 3.0 5.0 0.00 0.00 0.00 89 1012.9
20260503051317 59 283 3.0 4.0 0.00 0.00 0.00 89 1013.0
20260503050816 59 283 2.0 3.0 0.00 0.00 0.00 89 1012.9
20260503050316 59 260 3.0 4.0 0.00 0.00 0.00 89 1012.9
20260503045837 59 283 4.0 6.0 0.00 0.00 0.00 89 1012.9
20260503045316 59 283 2.0 3.0 0.00 0.00 0.00 88 1012.9
20260503044816 59 260 3.0 4.0 0.00 0.00 0.00 88 1012.8
20260503044316 59 283 2.0 3.0 0.00 0.00 0.00 88 1012.8
20260503043816 59 283 2.0 4.0 0.00 0.00 0.00 88 1012.7
20260503043337 59 305 3.0 4.0 0.00 0.00 0.00 87 1012.6
20260503042816 59 260 2.0 3.0 0.00 0.00 0.00 87 1012.6
20260503042317 60 283 4.0 6.0 0.00 0.00 0.00 87 1012.5
20260503041816 60 305 2.0 2.0 0.00 0.00 0.00 87 1012.5